[[{"header":{"parameterUnit":"m.s-1","parameterCategory":1,"la1":30.2991,"la2":30.254,"lo1":-89.0895,"lo2":-89.0444,"dy":0.0017,"dx":0.0017,"nx":28,"ny":28,"refTime":"2023-11-08T09:00:00:Z","depth":0,"parameterNumber":2,"parameterNumberName":"U-component_of_WINDS"},"data":[0,0,0,0,0,0,0,0,0,0,0,0,0,0,0,0,0,0,0,0,0,0,0,0,0,0,0,0,0,0,0,0,0,0,0,0,0,0,0,0,0,0,0,0,0,0,0,0,0,0,0,0,0,0,0,0,0,0,0.3222,0.3222,0,0.3209,0.3209,0.3209,0.3186,0.3185,0.3185,0.3184,0.3171,0.3171,0.3171,0,0,0,0,0,0,0,0,0,0,0,0,0,0.3228,0.3228,0.3222,0.3222,0.3222,0.3209,0.3209,0.3208,0.3186,0.3185,0.3185,0.3184,0.3171,0.3171,0.3171,0,0,0,0,0,0,0,0,0,0,0,0,0,0.3221,0.3228,0.3222,0.3209,0.3207,0.3209,0.3209,0.3208,0.3186,0.3185,0.3184,0.3184,0.3171,0.3171,0.3171,0.3185,0,0,0.3172,0.3172,0,0,0,0,0,0,0,0,0.3221,0.3221,0.3211,0.321,0.3208,0.3198,0.3206,0.3201,0.3186,0.3194,0.3184,0.3183,0.3181,0.318,0.3179,0.3185,0.3184,0.3172,0.3172,0.3172,0.3172,0,0,0,0,0,0,0,0.3222,0.3221,0.3217,0.3211,0.3209,0.3203,0.3202,0.3205,0.3191,0.3193,0.3191,0.319,0.318,0.3179,0.3179,0.3184,0.3172,0.3172,0.3172,0.3172,0.32,0.3201,0,0,0,0,0,0,0.3224,0.3222,0.3217,0.3216,0.3213,0.3204,0.3202,0.3202,0.3191,0.3189,0.3191,0.3189,0.3179,0.3178,0.3178,0.3193,0.3172,0.3172,0.3172,0.3199,0.32,0.3201,0,0,0,0,0,0,0.3224,0.3224,0.3218,0.3219,0.3217,0.3205,0.3205,0.3202,0.3201,0.3189,0.3187,0.3192,0.3179,0.3178,0.3184,0.3193,0.3172,0.3172,0.3199,0.32,0.3201,0.3224,0,0,0,0,0,0,0.3225,0.3224,0.3229,0.3219,0.3217,0.3223,0.3205,0.3202,0.3201,0.3199,0.319,0.3188,0.3178,0.3184,0.3184,0.3192,0.3172,0.3198,0.3199,0.32,0.3222,0.3226,0.3229,0,0,0,0,0,0.3225,0.3236,0.3229,0.3229,0.3223,0.3224,0.3223,0.3211,0.3202,0.3207,0.3199,0.3188,0.3192,0.3184,0.3184,0.3193,0.3197,0.3199,0.32,0.3221,0.3225,0.3229,0,0,0,0,0,0,0.3248,0.3235,0.3227,0.3235,0.3231,0.322,0.3226,0.3216,0.3214,0.3212,0.3198,0.3196,0.3204,0.3199,0.3191,0.3206,0.3193,0.3194,0.3209,0.3212,0.3215,0.3216,0.3172,0,0,0,0,0,0.3254,0.3255,0.3244,0.3252,0.325,0.3239,0.3238,0.323,0.3225,0.3223,0.3216,0.3211,0.3211,0.3212,0.3211,0.3222,0.322,0.3228,0.3231,0.3234,0.3235,0.3241,0.3244,0.3206,0.3206,0.3206,0,0,0.3266,0.3259,0.3261,0.3257,0.3252,0.3254,0.3237,0.324,0.3241,0.3223,0.3228,0.3223,0.3217,0.3225,0.3229,0.3222,0.3245,0.3236,0.3238,0.3238,0.3243,0.3246,0.325,0.3207,0.3207,0.3207,0,0,0.329,0.3285,0.3291,0.3287,0.3281,0.3273,0.3275,0.3265,0.3261,0.3266,0.3252,0.3254,0.3254,0.3251,0.3249,0.3272,0.3261,0.3272,0.3288,0.3294,0.3297,0.3299,0.3307,0.3311,0.3274,0.3274,0.3274,0,0.3306,0.3308,0.3296,0.33,0.3298,0.3282,0.3289,0.3285,0.3279,0.3279,0.3271,0.3271,0.3266,0.3274,0.3279,0.3278,0.328,0.3273,0.3297,0.33,0.3302,0.331,0.3313,0.3275,0.3275,0.3275,0.3275,0,0.3329,0.3331,0.3337,0.3331,0.333,0.3335,0.3324,0.3325,0.3317,0.331,0.3315,0.3308,0.3306,0.3307,0.3299,0.3314,0.331,0.33,0.3286,0.3307,0.3314,0.3317,0.3277,0.3277,0.3276,0.3276,0,0,0.3366,0.3353,0.3356,0.3353,0.3345,0.3346,0.3351,0.3349,0.335,0.3347,0.335,0.3351,0.3342,0.334,0.3332,0.3337,0.3355,0.3326,0.3326,0.3332,0.3371,0.3378,0.3381,0.3349,0.3349,0.335,0.3371,0,0.3387,0.3394,0.3383,0.3393,0.3394,0.3379,0.3384,0.3379,0.3373,0.3374,0.3367,0.3368,0.3356,0.3355,0.3359,0.3352,0.3363,0.3351,0.3352,0.3352,0.3353,0.3385,0.3392,0.3413,0.3374,0.3374,0.3375,0,0.3413,0.3411,0.3421,0.3412,0.3412,0.3416,0.3414,0.3414,0.341,0.3405,0.3403,0.3393,0.3397,0.3384,0.339,0.3382,0.3382,0.3379,0.3379,0.3379,0.3364,0.3385,0.3419,0.3422,0.3379,0.3378,0.3378,0,0.3439,0.3438,0.3444,0.3442,0.3433,0.3436,0.3432,0.3426,0.3426,0.3424,0.3423,0.3422,0.3421,0.342,0.341,0.3402,0.3417,0.3404,0.3413,0.3414,0.3417,0.3417,0.3452,0.3418,0.3418,0.3418,0.3418,0,0.3464,0.347,0.3455,0.3459,0.3466,0.3454,0.3461,0.3456,0.3451,0.3453,0.3441,0.3443,0.343,0.3431,0.3424,0.3429,0.3429,0.3426,0.3423,0.3426,0.3427,0.3426,0.3424,0.3418,0.3418,0.3418,0.3418,0,0.3493,0.3484,0.3489,0.348,0.3477,0.3483,0.3475,0.3478,0.3471,0.3475,0.3475,0.3464,0.3465,0.3455,0.3454,0.3449,0.3458,0.3454,0.346,0.3458,0.3469,0.3468,0.3504,0.3508,0.3472,0.3472,0.3472,0,0.3509,0.3514,0.3505,0.3506,0.3503,0.3504,0.3504,0.3492,0.3492,0.3487,0.3491,0.3491,0.349,0.3492,0.3485,0.3484,0.3479,0.3492,0.3479,0.3482,0.3479,0.3478,0.3479,0.3494,0.3495,0.3495,0.3495,0,0.3539,0.3534,0.3534,0.3532,0.3532,0.353,0.3527,0.3529,0.3516,0.3517,0.3518,0.3517,0.3516,0.3516,0.3514,0.3511,0.3501,0.35,0.3502,0.3505,0.3508,0.3506,0.3467,0.3499,0.3498,0.3498,0.3498,0.3498,0.3562,0.3566,0.356,0.356,0.3557,0.3555,0.3557,0.3551,0.3552,0.355,0.3543,0.3545,0.3541,0.3537,0.3534,0.3536,0.353,0.3533,0.3533,0.3534,0.3536,0.3508,0.3535,0.3535,0.3535,0.3535,0.3535,0,0.3591,0.3587,0.3587,0.3584,0.3584,0.3575,0.3572,0.3573,0.3575,0.3571,0.3571,0.3572,0.3572,0.3565,0.3564,0.3567,0.3562,0.3567,0.3566,0.3566,0.3542,0.354,0.3571,0.3571,0.3571,0.3571,0.3571,0.3571,0.3606,0.3611,0.3606,0.361,0.3605,0.3607,0.3606,0.3604,0.3601,0.3603,0.3603,0.3599,0.3594,0.3593,0.3593,0.359,0.3591,0.3597,0.3593,0.3571,0.3567,0.3564,0.3562,0.3597,0.3597,0.3617,0.3617,0.3617]},{"header":{"parameterUnit":"m.s-1","parameterCategory":1,"la1":30.2991,"la2":30.254,"lo1":-89.0895,"lo2":-89.0444,"dy":0.0017,"dx":0.0017,"nx":28,"ny":28,"refTime":"2023-11-08T09:00:00:Z","depth":0,"parameterNumber":3,"parameterNumberName":"V-component_of_WINDS"},"data":[0,0,0,0,0,0,0,0,0,0,0,0,0,0,0,0,0,0,0,0,0,0,0,0,0,0,0,0,0,0,0,0,0,0,0,0,0,0,0,0,0,0,0,0,0,0,0,0,0,0,0,0,0,0,0,0,0,0,1.8838,1.8838,0,1.8818,1.8818,1.8818,1.878,1.8779,1.8778,1.8777,1.8757,1.8757,1.8758,0,0,0,0,0,0,0,0,0,0,0,0,0,1.8846,1.8846,1.8838,1.8838,1.8838,1.8818,1.8818,1.8817,1.878,1.8779,1.8778,1.8777,1.8757,1.8757,1.8758,0,0,0,0,0,0,0,0,0,0,0,0,0,1.8836,1.8846,1.8838,1.8817,1.8814,1.8818,1.8818,1.8817,1.878,1.8779,1.8778,1.8777,1.8757,1.8757,1.8758,1.8781,0,0,1.8758,1.8758,0,0,0,0,0,0,0,0,1.8836,1.8835,1.882,1.8818,1.8816,1.88,1.8813,1.8805,1.878,1.8793,1.8777,1.8776,1.8773,1.8771,1.877,1.878,1.8779,1.8758,1.8759,1.8759,1.8759,0,0,0,0,0,0,0,1.8837,1.8836,1.883,1.882,1.8817,1.8808,1.8806,1.8811,1.8789,1.8792,1.8789,1.8787,1.8771,1.877,1.8769,1.8779,1.8758,1.8759,1.8759,1.8759,1.8809,1.881,0,0,0,0,0,0,1.8841,1.8837,1.8831,1.883,1.8823,1.8809,1.8806,1.8806,1.8789,1.8785,1.8788,1.8785,1.877,1.8769,1.8768,1.8796,1.8759,1.8759,1.8759,1.8807,1.8809,1.881,0,0,0,0,0,0,1.8841,1.8841,1.8832,1.8833,1.8831,1.881,1.8811,1.8806,1.8805,1.8786,1.8782,1.8791,1.8769,1.8768,1.8778,1.8794,1.8759,1.8759,1.8806,1.8808,1.8809,1.885,0,0,0,0,0,0,1.8841,1.8841,1.8849,1.8833,1.8831,1.8842,1.8812,1.8807,1.8806,1.8802,1.8788,1.8784,1.8768,1.8778,1.8779,1.8794,1.8759,1.8805,1.8807,1.8809,1.8847,1.8853,1.8857,0,0,0,0,0,1.8842,1.8861,1.885,1.8849,1.8841,1.8843,1.8842,1.8822,1.8807,1.8816,1.8803,1.8785,1.8792,1.878,1.878,1.8795,1.8803,1.8806,1.8809,1.8844,1.8851,1.8857,0,0,0,0,0,0,1.888,1.8859,1.8846,1.8861,1.8854,1.8836,1.8847,1.883,1.8828,1.8825,1.8801,1.8798,1.8812,1.8805,1.8791,1.8818,1.8795,1.8798,1.8822,1.8829,1.8834,1.8836,1.876,0,0,0,0,0,1.8891,1.8894,1.8875,1.889,1.8887,1.8868,1.8868,1.8853,1.8846,1.8843,1.8831,1.8824,1.8825,1.8826,1.8826,1.8845,1.8842,1.8856,1.8862,1.8866,1.8869,1.8879,1.8886,1.8819,1.8819,1.8819,0,0,1.8912,1.89,1.8904,1.8897,1.889,1.8894,1.8865,1.8871,1.8874,1.8843,1.8853,1.8844,1.8835,1.885,1.8856,1.8845,1.8887,1.8869,1.8873,1.8874,1.8883,1.8889,1.8895,1.8821,1.882,1.882,0,0,1.8953,1.8944,1.8956,1.8949,1.8939,1.8926,1.8929,1.8914,1.8907,1.8916,1.8894,1.8897,1.8899,1.8894,1.8891,1.8931,1.8914,1.8932,1.896,1.897,1.8975,1.898,1.8995,1.9,1.8934,1.8935,1.8935,0,1.898,1.8985,1.8964,1.8971,1.8969,1.8942,1.8954,1.8949,1.8939,1.8939,1.8926,1.8928,1.892,1.8934,1.8944,1.8942,1.8946,1.8933,1.8976,1.8981,1.8985,1.8999,1.9004,1.8937,1.8936,1.8936,1.8936,0,1.902,1.9024,1.9035,1.9026,1.9026,1.9035,1.9016,1.9018,1.9004,1.8993,1.9003,1.8992,1.899,1.8992,1.8978,1.9004,1.8997,1.898,1.8957,1.8994,1.9006,1.9012,1.894,1.8939,1.8938,1.8938,0,0,1.9085,1.9065,1.9069,1.9065,1.9052,1.9055,1.9064,1.9061,1.9064,1.9058,1.9065,1.9068,1.9052,1.905,1.9035,1.9045,1.9078,1.9027,1.9026,1.9037,1.9107,1.912,1.9126,1.9066,1.9067,1.9068,1.9108,0,1.9123,1.9137,1.9118,1.9136,1.914,1.9114,1.9122,1.9115,1.9105,1.9107,1.9095,1.9098,1.9077,1.9075,1.9083,1.9072,1.9091,1.9069,1.9073,1.9074,1.9077,1.9133,1.9146,1.9185,1.9112,1.9113,1.9114,0,1.917,1.9167,1.9185,1.9171,1.9172,1.918,1.9176,1.9178,1.917,1.9162,1.916,1.9142,1.9151,1.9128,1.9139,1.9125,1.9125,1.912,1.9121,1.9121,1.9097,1.9135,1.9196,1.9202,1.9121,1.9121,1.912,0,1.9216,1.9216,1.9227,1.9225,1.9209,1.9215,1.9209,1.9199,1.9199,1.9196,1.9196,1.9195,1.9194,1.9193,1.9176,1.9161,1.919,1.9166,1.9184,1.9185,1.9192,1.9192,1.9255,1.9192,1.9192,1.9191,1.9191,0,1.9261,1.9274,1.9248,1.9255,1.9268,1.9247,1.9261,1.9252,1.9245,1.925,1.9227,1.9233,1.921,1.9213,1.92,1.9212,1.9212,1.9206,1.9202,1.9208,1.9209,1.9209,1.9206,1.9193,1.9193,1.9192,1.9192,0,1.9316,1.9299,1.9309,1.9294,1.929,1.9301,1.9287,1.9294,1.9282,1.9289,1.9289,1.9271,1.9274,1.9257,1.9257,1.9248,1.9267,1.9258,1.9269,1.9267,1.9287,1.9286,1.9353,1.9361,1.9292,1.9292,1.9293,0,1.9346,1.9355,1.934,1.9342,1.9337,1.934,1.934,1.9319,1.932,1.9312,1.932,1.932,1.932,1.9326,1.9313,1.9313,1.9305,1.9328,1.9305,1.9311,1.9306,1.9306,1.9307,1.9333,1.9334,1.9335,1.9335,0,1.9402,1.9393,1.9393,1.9391,1.9392,1.9389,1.9385,1.9388,1.9366,1.9368,1.937,1.937,1.937,1.9371,1.9369,1.9363,1.9346,1.9343,1.9347,1.9354,1.936,1.9358,1.9284,1.9342,1.9341,1.9341,1.934,1.934,1.9445,1.9452,1.9443,1.9445,1.944,1.9437,1.9442,1.9431,1.9432,1.943,1.9418,1.9423,1.9416,1.9411,1.9406,1.941,1.9399,1.9406,1.9407,1.9409,1.9413,1.9359,1.941,1.941,1.9409,1.9409,1.9409,0,1.9501,1.9494,1.9495,1.949,1.9492,1.9475,1.947,1.9472,1.9477,1.9471,1.9471,1.9475,1.9476,1.9464,1.9464,1.947,1.9462,1.947,1.947,1.9469,1.9423,1.9419,1.9477,1.9477,1.9477,1.9477,1.9477,1.9477,1.953,1.9541,1.9532,1.9541,1.9533,1.9538,1.9537,1.9534,1.9529,1.9534,1.9535,1.9527,1.9519,1.9518,1.9519,1.9515,1.9517,1.9528,1.9522,1.9479,1.9472,1.9466,1.9463,1.9528,1.9528,1.9568,1.9568,1.9569]}]]